Regional Weather Roundup
Issued by NWS Charleston, SC

Current Version | Previous Version | Text Only | Print | Product List | Glossary On
Versions: 1 2 3 4 5 6 7 8 9 10 11 12 13 14 15 16 17 18 19 20 21 22 23 24 25 26 27 28 29 30 31 32 33 34 35 36 37 38 39 40 41 42 43 44 45 46 47 48 49 50
000 ASUS42 KCHS 290728 RWRCHS REGIONAL WEATHER ROUNDUP NATIONAL WEATHER SERVICE CHARLESTON SC 300 AM EDT FRI JUL 29 2016 NOTE: "FAIR" INDICATES FEW OR NO CLOUDS BELOW 12,000 FEET WITH NO SIGNIFICANT WEATHER AND/OR OBSTRUCTIONS TO VISIBILITY. NOT ALL STATIONS ARE QUALITY CONTROLLED. USE DATA WITH CAUTION... ESPECIALLY DEWPOINT OBSERVATIONS. SCZ027-030-031-034>040-042>050-290800- ...SOUTHEAST SOUTH CAROLINA... CITY SKY/WX TMP DP RH WIND PRES REMARKS N CHARLESTON CLEAR 84 77 79 SW8 29.94F HX 94 WATERFRONT PRK N/A 86 81 85 SW6 29.93S HX 102 MOUNT PLEASANT FAIR 84 81 89 CALM 29.94S HX 98 JOHNS ISLAND FAIR 86 79 79 SW8G16 29.95S HX 99 PINOPOLIS N/A 82 79 89 SW7 29.87S HX 93 MONCKS CORNER FAIR 77 73 88 SW7 29.94S SUMMERVILLE NOT AVBL BEAUFORT MCAS CLEAR 82 74 76 SW8 29.96F BEAUFORT ARPT FAIR 82 75 78 SW8 29.96S HILTON HEAD IS CLEAR 82 75 78 SW7 29.97F WALTERBORO SUNNY 81 79 94 SW5 29.96S ALLENDALE FAIR 77 68 73 CALM 29.95S ...SOUTHERN MIDLANDS AND PEE DEE... CITY SKY/WX TMP DP RH WIND PRES REMARKS GEORGETOWN FAIR 79 77 94 SW7 29.94F KINGSTREE FAIR 79 73 83 CALM 29.93S ORANGEBURG CLEAR 77 69 76 S3 29.95S BARNWELL NOT AVBL AIKEN FAIR 79 68 69 SW6 29.99S MANNING FAIR 79 72 78 SW5 29.94S COLUMBIA CLEAR 81 68 64 SW3 29.92S SUMTER CLEAR 79 68 68 SW5 29.91S FLORENCE CLEAR 81 70 69 SW7 29.92S MYRTLE BEACH CLEAR 82 72 69 SW8 29.94F N MYRTLE BEACH CLEAR 83 77 82 SW9 29.92S HX 92 $$ GAZ063-065-086>088-099>101-113>116-118-119-134>141-150-290800- ...SOUTHEAST GEORGIA... CITY SKY/WX TMP DP RH WIND PRES REMARKS SAVANNAH ARPT CLEAR 81 72 74 SW9 29.98S HUNTER AAF CLEAR 80 76 86 SW6 29.95F FORT STEWART PTCLDY 80 70 73 SW5 29.96F STATESBORO CLEAR 81 71 71 W6 29.97F SYLVANIA NOT AVBL CLAXTON FAIR 76 72 85 S3 29.98F ...CSRA...CENTRAL AND FAR SOUTHEAST GEORGIA... CITY SKY/WX TMP DP RH WIND PRES REMARKS THOMSON NOT AVBL AUGUSTA-BUSH CLEAR 79 68 69 W5 29.95S AUGUSTA-DANIEL CLEAR 82 69 64 VRB3 29.97R SWAINSBORO FAIR 79 68 69 W3 29.99S VIDALIA CLEAR 81 70 69 W5 29.99F EASTMAN FAIR 80 62 55 CALM 30.02S HAZLEHURST FAIR 81 75 84 CALM 29.99S ALMA CLEAR 79 72 79 SW3 30.00F WAYCROSS CLEAR 80 77 90 W3 30.01S JESUP FAIR 77 75 94 CALM 30.00S BAXLEY FAIR 81 77 89 CALM 30.00S BRUNSWICK CLEAR 81 77 89 SW7 30.00F SAINT SIMONS CLEAR 82 75 79 SW9 30.00F $$ SCZ027-028-034-036>038-045-046-048>050-GAZ119-141-290800- ...LAKE AND SUPPLEMENTAL COASTAL OBSERVATIONS... STATION/POSITION TIME TEMP WIND PRES WAVE SWELL AIR SEA DIR/SP/G HT/PER HT/PER/DIR (UTC) (F) (DEG/KT/KT) (MB) (FT/S) (FT/S/D) WINYAH BAY 0645 83 230/ 7 1013.0S LAKE MURRAY 0600 84 260/ 8/ 10 1012.9F ACE BASIN NERRS 0600 83 CALM 1015.0S FORT PULASKI 0700 82 88 220/ 5/ 8 1015.3F SAPELO ISLAND 0600 82 200/ 9 1016.0S $$ ANZ835-935-AMZ111-154-330-350-352-354-370-450-454-472-290800- ...C-MAN AND BUOY OBSERVATIONS... STATION/POSITION TIME TEMP WIND PRES WAVE SWELL AIR SEA DIR/SP/G HT/PER HT/PER/DIR (UTC) (F) (DEG/KT/KT) (MB) (FT/S) (FT/S/D) BUOY 41004 0650 86 86 230/ 19/ 23 1013.3F 5/ 5 2/150/ 8 BUOY 41008 0650 87 87 220/ 17/ 19 1015.0F 4/ 5 FOLLY BEACH CMAN 0700 86 230/ 12/ 16 1014.1F CAPERS NEARSHORE 0608 85 84 230/ 19/ 27 1013.8F FRIPP NEARSHORE 0608 86 87 230/ 17/ 23 1014.3F STATION/POSITION TIME TEMP WIND PRES WAVE SWELL AIR SEA DIR/SP/G HT/PER HT/PER/DIR (UTC) (F) (DEG/KT/KT) (MB) (FT/S) (FT/S/D) 5E ST. MARYS GA 0701 85 N/A 2/ 4 FRYING PAN BUOY 0700 86 85 230/ 17/ 21 1013.1F BUOY 41025 0650 85 85 240/ 16/ 19 1012.2S 4/ 5 2/220/11 CAPE LOOKOUT NC 0700 84 240/ 12/ 16 1012.2R BUOY 41002 0650 84 84 250/ 8/ 10 1015.4S 3/ 7 3/250/ 7 BUOY 41010 0620 85 87 220/ 10/ 12 1017.0F ST AUGUSTINE FL 0700 80 84 250/ 5/ 6 1017.5F $$

USA.gov is the U.S. government's official web portal to all federal, state and local government web resources and services.